Regional Weather Roundup
Issued by NWS Green Bay, WI

Home | Current Version | Previous Version | Text Only | Print | Product List | Glossary On
Versions: 1 2 3 4 5 6 7 8 9 10 11 12 13 14 15 16 17 18 19 20 21 22 23 24 25 26 27 28 29 30 31 32 33 34 35 36 37 38 39 40 41 42 43 44 45 46 47 48 49 50
000
ASUS43 KGRB 220510
RWRGRB

NORTH-CENTRAL AND NORTHEAST WISCONSIN REGIONAL WEATHER ROUNDUP
NATIONAL WEATHER SERVICE GREEN BAY WI
1200 AM CDT WED OCT 22 2014

WIZ005-009-010>012-018-019-220600-
NORTH CENTRAL WISCONSIN

CITY           SKY/WX    TMP DP  RH WIND       PRES   REMARKS
IRONWOOD       CLEAR     36  32  87 E6        30.22F
MANITOWISH WTR CLEAR     34  32  92 SE6       30.25S
ARBOR VITAE    CLEAR     39  33  78 SE6       30.26S
EAGLE RIVER    CLEAR     35  28  76 SE3       30.27S
LAND O LAKES   CLEAR     28  27  95 CALM      30.28S
RHINELANDER    CLEAR     33  28  81 SE6       30.28R
PHILLIPS       CLEAR     31  30  98 CALM      30.25S
ANTIGO         PTCLDY    34  31  90 SE7       30.29S
TOMAHAWK       CLEAR     29  28  95 CALM      30.28S
MERRILL        PTCLDY    29  29  99 CALM      30.28S
$$

WIZ013-073-220600-
NORTHEAST WISCONSIN

CITY           SKY/WX    TMP DP  RH WIND       PRES   REMARKS
IRON MOUNTAIN  PTCLDY    27  25  92 CALM      30.30S
MARINETTE      CLEAR     34  28  80 N5        30.30S
OCONTO         CLEAR     33  33 100 CALM      30.31S
$$

WIZ017-030-035>037-045-220600-
CENTRAL WISCONSIN

CITY           SKY/WX    TMP DP  RH WIND       PRES   REMARKS
MEDFORD        CLEAR     34  32  94 SE3       30.26S
WAUSAU         PTCLDY    35  31  85 E7        30.28R
MOSINEE        CLEAR     36  34  93 CALM      30.29S
MARSHFIELD     CLEAR     38  33  82 S3        30.27S
WISC RAPIDS    CLEAR     32  30  92 E3        30.29S
STEVENS POINT  PTCLDY    29  28  94 CALM      30.29S
WAUPACA        CLEAR     33  32  96 CALM      30.30S
SHAWANO        CLEAR     39  36  87 NE5       30.31S
CLINTONVILLE   CLEAR     32  32 100 CALM      30.30S
$$

WIZ038-039-048-051-220600-
FOX VALLEY

CITY           SKY/WX    TMP DP  RH WIND       PRES   REMARKS
NWS GREEN BAY  CLEAR     33  32  96 NW5       30.31R
APPLETON       CLEAR     39  32  75 CALM      30.29S
OSHKOSH        PTCLDY    39  35  86 CALM      30.29R
FOND DU LAC    PTCLDY    31  28  89 CALM      30.29S
$$

WIZ022-050-052-220600-
EAST CENTRAL WISCONSIN

CITY           SKY/WX    TMP DP  RH WIND       PRES   REMARKS
STURGEON BAY   CLEAR     39  34  81 NE3       30.30S
MANITOWOC      CLEAR     33  32  96 W3        30.30S
SHEBOYGAN      PTCLDY    33  31  92 CALM      30.29R
$$

LMZ563-521-522-541>543-220600-
LAKESHORE

STATION/POSITION TIME  TEMP    WIND        PRES    VSBY  WAVE
                       AIR SEA DIR/SP/G                  HT/PER
                 (UTC) (F)     (DEG/KT/KT) (MB)    (MI)  (FT/S)
SHEBOYGAN LKSHOR 0500   47 49   60/ 14/ 16 1026.1F
KEWAUNEE LKSHORE 0500   46      60/  6/ 10 1024.7S
NORTHPORT PIER   0500   45      90/  9/ 12 1026.1S
N MID LAKE BUOY  0500   46 51   70/ 10/ 12 1026.6R         2/ 4
SISTER BAY LKSHO 0400           30/  3/  8   N/A
CHAMBERS ISLAND  0500   44      50/  8/ 12 1026.1S
MENOMINEE LKSHOR 0500   45      60/  7/ 10 1026.7S
$$



USA.gov is the U.S. government's official web portal to all federal, state and local government web resources and services.